Weather in Truskavets

Ukraine / Lviv District     49°16′41″N   23°30′22″E
temp.,
°C
wind,
m/s
gust,
m/s
humid.,
%
clouds,
%
prec.,
mm/h
press.,
hPa
HPBL,
m
12 may, wed
wed1200:00+10se38880 0.0 1013170
03:00+9se24920 0.0 1012100
06:00+9se23955 0.0 101156
09:00+14ese35681 0.0 1010310
12:00+18ese69550 0.0 10091101
15:00+20e795628 0.0 10081593
18:00+12ese61186100 0.1 1009833
21:00+10ese5128771 0.1 1008712
13 may, thu
thu1300:00+8ese5119697 0.0 1008536
03:00+8se369368 0.3 1005309
06:00+7se259647 0.0 1004155
09:00+10se2390100 0.1 1003182
12:00+16ssw4764100 0.1 10011211
15:00+13ssw41081100 0.4 1002758
18:00+13s2884100 0.6 1002691
21:00+11ssw388687 0.6 1002383
14 may, fri
fri1400:00+9ssw229527 0.0 100325
03:00+9ssw398774 0.0 1003438
06:00+8ssw2590100 0.0 1005174
09:00+12sw5967100 0.0 10051229
12:00+13sw5759100 0.1 10061125
15:00+11wnw2580100 0.3 1008671
18:00+10nnw238892 0.3 1010334
21:00+8ssw119313 0.3 101011
15 may, sat
sat1500:00+7sw22957 0.0 101124
03:00+6sw229511 0.0 101233
06:00+6ssw229557 0.0 101126
09:00+13s127077 0.0 1010350
12:00+17ese3355100 0.3 10101546
15:00+17ese2460100 1.5 10081378
18:00+15ese358247 2.3 1008727
21:00+12se229380 3.4 100830
16 may, sun
sun1600:00+9sse119443 0.0 100817
03:00+8sse1195100 0.1 100714
06:00+8sse1196100 0.0 100715
09:00+11ese3693100 0.0 1007292
12:00+11ese2898100 2.6 1007430
15:00+14se2591100 4.2 1006528
18:00+12ssw119698 2.1 100534
21:00+11w2196100 4.0 100518